SCP
0 0 0 0 0 0 0 0 0 0 0 0 0 0 0 0 0 0 0 0 0 0 0 0 0 0 0 0 0 0 0 0 0 0 0 0 0 0 0 0 0 0 0 0 -0
0 0 0 0 0 0 0 0 0 0 0 0 0 0 0 0 0 0 0 0 0 0 0 0 0 0 0 0 0 0 0 0 0 0 0 0 0 0 0 0 0 0 0 0 0
0 0 0 0 0 0 0 0 0 0 0 0 0 0 0 0 0 0 0 0 0 0 0 0 0 0 0 0 0 0 0 0 0 0 0 0 0 0 0 0 0 0 0 0 0
0 0 0 0 0 0 0 0 0 0 0 0 0 0 0 0 0 0 0 0 0 0 0 0 0 0 0 0 0 0 0 0 0 0 0 0 0 0 0 0 0 0 0 0 0
0 0 0 0 0 0 0 0 0 0 0 0 0 0 0 0 0 0 0 0 0 0 0 0 0 0 0 0 0 0 0 0 0 0 0 0 0 0 0 0 0 0 0 0 0
0 0 0 0 0 0 0 0 0 0 0 0 0 0 0 0 0 0 0 0 0 0 0 0 0 0 0 0 0 0 0 0 0 0 0 0 0 0 -0 0 0 0 0 0 0
0 0 0 0 0 0 0 0 0 0 0 0 0 0 0 0 0 0 0 0 0 0 0 0 0 0 0 0 0 0 0 0 0 0 0 0 0 0 -0 0 0 0 0 0 0
0 0 0 0 0 0 0 0 0 0 0 0 0 0 0 0 0 0 0 0 0 0 0 0 0 0 0 0 0 0 0 0 0 0 0 0 0 0 0 0 0 0 0 0 0
0 0 0 0 0 0 0 0 0 0 0 0 0 0 0 0 0 0 0 0 0 0 0 0 0 0 0 0 0 0 0 0 0 0 0 0 0 0 0 0 0 0 0 0 0
0 0 0 0 0 0 0 0 0 0 0 0 0 0 0 0 0 0 0 0 0 0 0 0 0 0 0 0 0 0 0 0 0 0 0 0 0 0 0 0 0 0 0 0 0
0 0 0 0 0 0 0 0 0 0 0 0 0 0 0 0 0 0 0 0 0 0 0 0 0 0 0 0 0 0 0 0 0 0 0 0 0 0 0 0 0 0 0 0 0
0 0 0 0 0 0 0 0 0 0 0 0 0 0 0 0 0 0 0 0 0 0 0 0 0 0 0 0 0 0 0 0 0 0 0 0 0 0 0 0 0 0 0 0 0
0 0 0 0 0 0 0 0 0 0 0 0 0 0 0 0 0 0 0 0 0 0 0 0 0 0 0 0 0 0 0 0 0 0 0 0 0 -0 0 0 0 0 0 0 0
0 0 0 0 0 0 0 0 0 0 0 0 0 0 0 0 0 0 0 0 0 0 0 0 0 0 0 0 0 0 0 0 0 0 0 -0 -0 0 0 0 0 0 0 0 0
0 0 0 0 0 0 0 0 0 0 0 0 0 0 0 0 0 0 0 0 0 0 0 0 0 0 0 0 0 0 0 0 0 0 0 0 0 -0 -0 0 0 0 0 0 0
0 0 0 1 1 0 0 0 0 0 0 0 0 0 0 0 0 0 0 0 0 0 0 0 0 0 0 0 0 0 0 0 0 0 0 0 0 -0 0 -0 -0 0 0 0 0
0 0 0 0 0 0 0 0 0 0 0 0 0 0 0 0 0 0 0 0 0 0 0 0 0 0 0 0 0 0 0 0 0 0 0 0 0 0 0 0 0 0 0 0 0
0 0 0 0 0 0 0 0 0 0 0 0 0 0 0 0 0 0 0 0 0 0 0 0 0 0 0 0 0 0 0 0 0 0 0 0 0 0 0 0 0 0 0 0 0
0 0 0 0 0 0 0 0 0 0 0 0 0 0 0 0 0 0 0 0 0 0 0 0 0 0 0 0 0 0 0 0 0 0 0 0 0 0 0 0 0 0 0 0 -0
0 0 0 0 0 0 0 0 0 0 0 0 0 0 0 0 0 0 0 0 0 0 0 0 0 0 0 0 0 0 0 0 0 0 0 0 0 0 0 0 0 0 0 0 0
0 0 0 0 0 0 0 0 0 0 0 0 0 0 0 0 0 0 0 0 0 0 0 0 0 0 0 0 0 0 0 0 0 0 0 0 0 0 0 0 0 0 0 0 0
0 0 0 0 0 0 0 0 0 0 0 0 0 0 0 0 0 0 0 0 0 0 0 0 0 0 0 0 0 0 0 0 0 0 0 0 0 0 0 0 0 0 0 -0 -0
0 0 0 0 0 0 0 0 0 0 0 0 0 0 0 0 0 0 0 0 0 0 0 0 0 0 0 0 0 0 0 0 0 0 0 0 0 0 0 0 0 0 -0 0 0
0 0 0 0 0 0 0 0 0 0 0 0 0 0 0 0 0 0 0 0 0 0 0 0 0 0 0 0 0 0 0 0 0 0 0 0 0 0 0 0 0 0 0 0 0
0 0 0 0 0 0 0 0 0 0 0 0 0 0 0 0 0 0 0 0 0 0 0 0 0 0 0 0 0 0 0 0 0 0 0 0 0 0 0 0 0 0 0 0 0
0 0 0 -0 0 0 0 0 0 0 0 0 0 0 0 0 0 0 0 0 0 0 0 0 0 0 0 0 0 0 0 0 0 0 0 0 0 0 0 0 0 0 0 0 0
0 0 0 0 0 0 0 0 0 0 0 0 0 0 0 0 0 0 0 0 0 0 0 0 0 0 0 0 0 0 0 0 0 0 0 0 0 0 0 0 0 0 0 0 0
Wind_Speed_500mb
37 38 34 32 31 37 43 45 43 37 33 31 29 26 24 24 23 23 22 17 15 17 16 4 2 12 11 9 9 10 10 14 9 12 6 14 14 8 8 9 12 13 7 10 15
41 40 38 35 33 30 34 42 43 38 33 32 30 28 27 26 25 29 24 22 21 17 17 23 16 6 9 10 9 15 11 14 4 6 4 13 11 13 11 13 17 17 24 19 18
49 44 42 38 36 32 29 33 38 38 37 33 30 26 26 23 20 17 28 36 34 26 16 13 15 13 14 9 14 9 22 12 4 2 2 6 6 3 10 13 17 18 21 28 26
56 51 46 42 38 34 30 29 30 31 31 30 26 22 20 14 9 7 11 19 26 30 25 15 14 13 14 17 15 13 16 9 5 6 6 7 5 10 18 15 7 9 13 23 33
55 57 54 48 43 37 32 31 28 28 28 29 24 17 18 12 17 10 2 7 12 25 26 22 18 14 17 13 14 18 15 11 10 9 5 6 14 17 37 35 26 25 23 26 33
54 57 58 55 47 41 37 34 29 27 27 29 26 21 23 17 18 23 17 3 3 15 23 26 15 14 10 7 21 10 22 15 10 15 14 16 31 7 46 31 32 34 35 32 32
62 57 59 59 55 46 41 38 33 26 28 31 31 29 28 31 12 20 23 20 7 13 18 26 17 18 14 9 8 5 11 14 21 17 15 17 29 31 67 39 41 42 38 37 37
69 62 61 62 60 54 46 42 35 28 23 30 35 34 21 29 43 19 16 27 16 14 14 18 18 13 7 12 7 9 9 16 9 22 17 28 41 41 45 36 45 44 45 43 46
74 68 63 65 63 60 52 45 38 31 29 34 37 30 15 23 37 37 27 21 25 19 18 22 25 12 14 13 10 11 17 24 14 6 6 27 23 20 16 27 41 42 43 42 40
69 69 68 60 66 65 58 48 40 36 36 33 32 18 27 24 26 44 45 27 21 22 19 21 17 16 10 20 21 22 20 15 20 4 8 23 34 31 46 33 32 31 31 34 37
64 71 69 65 62 68 64 56 43 21 56 23 24 15 7 36 30 29 41 28 21 27 19 28 19 26 36 34 22 7 15 20 8 8 16 33 39 32 41 48 49 56 55 54 55
70 66 73 72 61 73 85 87 77 30 22 48 24 51 10 38 14 23 41 30 30 28 30 15 33 28 15 27 30 21 16 20 18 19 18 37 51 46 54 65 63 62 65 65 69
63 69 69 73 68 57 94 94 64 42 12 36 37 37 34 26 18 36 52 34 34 30 36 34 5 30 21 21 29 31 32 28 28 22 32 39 47 38 21 36 58 58 71 76 75
68 64 64 66 62 73 74 90 83 62 8 17 34 27 52 26 17 25 62 34 18 37 32 28 26 10 28 38 31 30 17 23 23 18 13 3 20 35 31 29 31 55 57 59 53
65 62 66 72 63 77 59 73 76 55 20 33 27 22 46 50 31 30 65 30 27 26 22 21 26 33 21 26 26 16 12 14 20 22 26 32 18 13 11 19 29 44 43 46 47
76 69 64 64 76 58 72 85 77 11 17 20 25 36 46 59 19 32 44 32 19 18 18 16 2 26 20 20 32 17 13 5 7 10 16 28 23 38 29 25 20 23 31 31 31
66 69 72 71 70 61 65 84 17 20 23 21 19 35 53 27 35 31 39 43 26 23 30 20 23 7 16 21 18 23 26 8 8 12 19 2 22 43 13 17 20 26 36 32 30
67 65 72 76 65 84 88 28 33 27 21 17 26 42 41 35 36 34 41 40 42 28 24 25 17 34 28 23 20 44 35 12 17 13 12 8 30 21 4 19 38 34 37 37 44
73 71 74 74 81 68 69 37 33 18 27 36 43 42 24 37 26 35 44 46 42 47 30 23 21 23 25 21 31 33 34 24 9 2 9 17 32 39 36 33 39 49 32 28 36
69 68 75 76 79 82 20 50 16 25 37 45 28 36 35 47 28 38 39 37 45 56 45 13 8 2 26 30 30 24 22 14 17 14 19 26 40 38 17 33 34 36 39 32 36
69 32 60 85 80 48 19 15 15 47 51 39 26 26 35 45 44 46 41 16 60 49 49 16 8 9 17 26 36 21 18 17 17 25 13 20 28 27 31 24 22 21 31 44 61
53 21 36 82 27 7 26 15 11 35 57 21 22 32 47 57 47 43 48 30 50 54 56 30 12 13 22 9 30 43 42 38 18 22 25 34 47 24 41 42 50 54 53 49 59
25 24 39 80 26 17 14 15 11 26 47 28 29 27 30 48 28 37 43 23 39 47 45 25 14 11 8 10 7 26 38 43 41 25 35 32 33 26 36 44 57 58 62 66 73
23 11 19 72 46 17 18 17 27 37 32 31 18 27 29 34 23 44 27 15 41 51 37 48 20 30 32 9 21 27 35 43 41 31 49 40 58 64 64 61 50 64 64 76 86
28 13 17 6 20 34 15 22 20 17 29 54 28 43 34 22 36 21 37 16 27 45 38 28 24 39 43 29 13 16 30 48 52 55 38 52 45 63 69 51 59 76 88 89 91
30 8 6 4 30 25 23 26 23 11 19 27 26 46 48 32 37 32 44 29 26 32 39 25 11 26 27 38 31 28 42 33 45 51 48 56 53 64 85 92 83 82 84 77 84
53 28 11 16 33 32 26 19 15 22 13 32 33 44 45 36 61 42 51 55 34 41 46 31 20 13 12 17 23 24 62 48 45 47 43 43 58 61 54 53 76 79 66 77 89
Wind_Direction_500mb
236 243 247 241 235 232 231 232 237 238 238 241 244 247 249 252 258 263 270 259 261 251 241 214 304 239 218 209 171 165 231 241 225 180 207 163 195 182 205 198 213 210 213 186 181
236 237 240 245 242 236 231 231 233 238 239 239 243 247 255 259 263 260 253 252 255 251 242 247 254 216 198 192 181 210 232 228 203 224 267 182 223 167 182 195 227 230 226 217 198
234 235 236 237 243 238 236 232 229 230 235 240 241 242 250 263 287 255 240 240 239 246 245 234 224 201 204 183 190 195 240 195 131 207 184 202 248 238 198 214 232 237 230 228 221
237 237 237 236 235 236 233 230 229 227 226 229 232 231 234 228 234 200 247 260 235 230 234 213 191 185 211 202 190 204 228 192 172 175 182 189 289 266 236 247 234 257 248 239 229
239 235 234 235 232 231 227 231 228 226 225 221 218 213 199 210 234 190 215 19 203 211 214 204 191 188 212 204 173 221 220 203 210 217 242 249 249 267 262 258 271 265 260 256 247
240 236 232 230 229 229 224 222 227 220 218 212 205 203 202 219 240 232 214 259 123 195 202 196 205 193 197 205 213 197 234 223 220 230 260 262 261 233 260 254 254 260 263 257 250
239 238 231 228 228 226 222 217 217 224 212 206 197 207 215 230 222 235 223 213 192 186 191 198 196 191 181 173 166 187 247 222 225 224 240 229 252 232 257 258 259 262 262 257 257
240 236 233 226 224 222 220 217 213 207 214 203 199 206 233 242 233 220 225 202 200 200 184 189 182 177 170 129 115 195 221 246 174 215 233 203 257 249 263 253 250 254 251 249 252
240 234 232 227 222 219 215 212 209 206 196 198 201 200 234 235 226 219 226 201 196 200 188 188 191 192 164 194 203 199 236 225 239 228 284 213 264 254 275 253 254 258 259 256 254
236 233 226 226 221 215 212 204 203 198 187 196 206 201 230 221 218 212 211 208 178 173 179 193 188 194 204 196 218 224 227 224 236 132 242 255 256 267 274 277 278 274 265 265 264
233 230 224 222 221 213 203 190 179 187 189 185 197 202 301 207 192 206 197 177 164 184 190 193 203 210 211 218 248 257 239 244 232 245 303 270 274 271 272 274 266 262 263 264 265
231 228 222 218 216 219 206 190 191 183 177 205 199 201 190 187 175 196 181 177 185 196 190 191 223 219 230 220 226 228 232 238 258 272 286 287 282 278 267 261 259 260 263 261 262
227 222 218 217 214 212 195 200 189 178 165 211 206 204 184 178 202 195 178 190 193 195 201 204 194 216 212 209 216 227 235 246 260 282 272 290 285 265 250 250 251 250 249 253 251
225 221 218 213 213 215 217 212 200 188 201 182 198 225 196 188 234 210 186 179 191 203 198 222 203 164 200 220 214 230 228 245 255 272 268 62 293 279 275 261 243 247 243 251 257
222 215 212 211 205 209 214 198 176 180 229 163 173 189 180 182 143 188 185 193 194 178 187 195 195 193 200 206 198 219 180 232 246 250 274 260 269 254 262 261 248 251 249 248 254
217 222 219 215 215 213 205 193 171 196 220 176 157 175 165 195 174 149 177 190 186 200 224 222 166 205 199 193 196 157 149 138 194 234 256 226 225 265 247 255 268 251 248 253 256
229 215 209 209 211 203 198 170 187 211 150 171 172 172 177 172 174 175 178 188 177 184 203 195 204 167 165 171 192 185 168 176 209 215 246 206 218 250 297 286 248 257 274 276 275
224 220 213 220 199 205 181 193 224 156 179 160 168 166 185 159 191 186 183 196 213 205 173 196 206 199 182 194 182 198 186 195 215 219 268 199 230 253 250 231 251 271 283 286 285
213 214 215 212 213 202 186 211 208 171 171 159 148 167 177 182 166 181 198 205 201 201 200 200 226 187 194 185 173 193 218 211 311 134 280 238 257 272 253 247 254 270 287 291 295
208 215 216 216 212 206 213 213 183 171 155 156 155 178 178 181 165 182 187 210 208 206 217 186 193 267 181 199 213 193 169 190 217 230 238 249 256 253 279 281 283 285 300 297 301
206 215 219 213 213 221 218 228 187 182 160 175 181 171 191 177 188 184 191 198 198 190 201 182 222 144 172 201 194 190 187 220 212 226 242 267 259 256 271 275 286 300 288 293 298
193 211 199 201 195 193 222 166 262 182 179 179 186 164 184 183 188 188 200 211 198 181 190 194 224 191 198 173 228 219 210 200 214 214 232 249 263 278 286 289 291 289 294 301 300
199 191 203 196 213 209 148 193 213 178 187 180 180 185 179 179 182 196 199 181 185 175 177 160 190 178 195 234 193 221 218 225 229 247 243 234 264 280 286 287 286 293 299 292 290
202 165 227 199 214 198 164 170 184 193 191 196 167 160 155 181 185 193 181 166 181 184 179 165 200 214 220 140 178 211 216 219 220 229 242 240 259 278 279 276 298 294 291 287 287
183 228 213 161 177 177 198 155 169 153 210 201 198 178 164 168 183 184 177 153 177 188 181 188 226 225 245 254 203 214 225 222 221 230 232 255 248 264 271 287 284 289 289 292 295
183 184 143 203 170 151 167 204 190 159 157 203 179 191 190 186 189 177 171 175 174 181 188 198 231 215 242 237 239 251 244 228 225 235 242 250 256 255 274 279 281 284 287 297 298
194 191 170 172 176 180 187 173 172 167 185 204 197 186 197 197 194 189 167 170 157 162 184 183 182 164 226 211 214 250 243 231 232 235 231 238 247 259 262 272 278 286 299 295 297
Wind_Speed_850mb
37 38 34 32 31 37 43 45 43 37 33 31 29 26 24 24 23 23 22 17 15 17 16 4 2 12 11 9 9 10 10 14 9 12 6 14 14 8 8 9 12 13 7 10 15
41 40 38 35 33 30 34 42 43 38 33 32 30 28 27 26 25 29 24 22 21 17 17 23 16 6 9 10 9 15 11 14 4 6 4 13 11 13 11 13 17 17 24 19 18
49 44 42 38 36 32 29 33 38 38 37 33 30 26 26 23 20 17 28 36 34 26 16 13 15 13 14 9 14 9 22 12 4 2 2 6 6 3 10 13 17 18 21 28 26
56 51 46 42 38 34 30 29 30 31 31 30 26 22 20 14 9 7 11 19 26 30 25 15 14 13 14 17 15 13 16 9 5 6 6 7 5 10 18 15 7 9 13 23 33
55 57 54 48 43 37 32 31 28 28 28 29 24 17 18 12 17 10 2 7 12 25 26 22 18 14 17 13 14 18 15 11 10 9 5 6 14 17 37 35 26 25 23 26 33
54 57 58 55 47 41 37 34 29 27 27 29 26 21 23 17 18 23 17 3 3 15 23 26 15 14 10 7 21 10 22 15 10 15 14 16 31 7 46 31 32 34 35 32 32
62 57 59 59 55 46 41 38 33 26 28 31 31 29 28 31 12 20 23 20 7 13 18 26 17 18 14 9 8 5 11 14 21 17 15 17 29 31 67 39 41 42 38 37 37
69 62 61 62 60 54 46 42 35 28 23 30 35 34 21 29 43 19 16 27 16 14 14 18 18 13 7 12 7 9 9 16 9 22 17 28 41 41 45 36 45 44 45 43 46
74 68 63 65 63 60 52 45 38 31 29 34 37 30 15 23 37 37 27 21 25 19 18 22 25 12 14 13 10 11 17 24 14 6 6 27 23 20 16 27 41 42 43 42 40
69 69 68 60 66 65 58 48 40 36 36 33 32 18 27 24 26 44 45 27 21 22 19 21 17 16 10 20 21 22 20 15 20 4 8 23 34 31 46 33 32 31 31 34 37
64 71 69 65 62 68 64 56 43 21 56 23 24 15 7 36 30 29 41 28 21 27 19 28 19 26 36 34 22 7 15 20 8 8 16 33 39 32 41 48 49 56 55 54 55
70 66 73 72 61 73 85 87 77 30 22 48 24 51 10 38 14 23 41 30 30 28 30 15 33 28 15 27 30 21 16 20 18 19 18 37 51 46 54 65 63 62 65 65 69
63 69 69 73 68 57 94 94 64 42 12 36 37 37 34 26 18 36 52 34 34 30 36 34 5 30 21 21 29 31 32 28 28 22 32 39 47 38 21 36 58 58 71 76 75
68 64 64 66 62 73 74 90 83 62 8 17 34 27 52 26 17 25 62 34 18 37 32 28 26 10 28 38 31 30 17 23 23 18 13 3 20 35 31 29 31 55 57 59 53
65 62 66 72 63 77 59 73 76 55 20 33 27 22 46 50 31 30 65 30 27 26 22 21 26 33 21 26 26 16 12 14 20 22 26 32 18 13 11 19 29 44 43 46 47
76 69 64 64 76 58 72 85 77 11 17 20 25 36 46 59 19 32 44 32 19 18 18 16 2 26 20 20 32 17 13 5 7 10 16 28 23 38 29 25 20 23 31 31 31
66 69 72 71 70 61 65 84 17 20 23 21 19 35 53 27 35 31 39 43 26 23 30 20 23 7 16 21 18 23 26 8 8 12 19 2 22 43 13 17 20 26 36 32 30
67 65 72 76 65 84 88 28 33 27 21 17 26 42 41 35 36 34 41 40 42 28 24 25 17 34 28 23 20 44 35 12 17 13 12 8 30 21 4 19 38 34 37 37 44
73 71 74 74 81 68 69 37 33 18 27 36 43 42 24 37 26 35 44 46 42 47 30 23 21 23 25 21 31 33 34 24 9 2 9 17 32 39 36 33 39 49 32 28 36
69 68 75 76 79 82 20 50 16 25 37 45 28 36 35 47 28 38 39 37 45 56 45 13 8 2 26 30 30 24 22 14 17 14 19 26 40 38 17 33 34 36 39 32 36
69 32 60 85 80 48 19 15 15 47 51 39 26 26 35 45 44 46 41 16 60 49 49 16 8 9 17 26 36 21 18 17 17 25 13 20 28 27 31 24 22 21 31 44 61
53 21 36 82 27 7 26 15 11 35 57 21 22 32 47 57 47 43 48 30 50 54 56 30 12 13 22 9 30 43 42 38 18 22 25 34 47 24 41 42 50 54 53 49 59
25 24 39 80 26 17 14 15 11 26 47 28 29 27 30 48 28 37 43 23 39 47 45 25 14 11 8 10 7 26 38 43 41 25 35 32 33 26 36 44 57 58 62 66 73
23 11 19 72 46 17 18 17 27 37 32 31 18 27 29 34 23 44 27 15 41 51 37 48 20 30 32 9 21 27 35 43 41 31 49 40 58 64 64 61 50 64 64 76 86
28 13 17 6 20 34 15 22 20 17 29 54 28 43 34 22 36 21 37 16 27 45 38 28 24 39 43 29 13 16 30 48 52 55 38 52 45 63 69 51 59 76 88 89 91
30 8 6 4 30 25 23 26 23 11 19 27 26 46 48 32 37 32 44 29 26 32 39 25 11 26 27 38 31 28 42 33 45 51 48 56 53 64 85 92 83 82 84 77 84
53 28 11 16 33 32 26 19 15 22 13 32 33 44 45 36 61 42 51 55 34 41 46 31 20 13 12 17 23 24 62 48 45 47 43 43 58 61 54 53 76 79 66 77 89
Wind_Direction_850mb
236 243 247 241 235 232 231 232 237 238 238 241 244 247 249 252 258 263 270 259 261 251 241 214 304 239 218 209 171 165 231 241 225 180 207 163 195 182 205 198 213 210 213 186 181
236 237 240 245 242 236 231 231 233 238 239 239 243 247 255 259 263 260 253 252 255 251 242 247 254 216 198 192 181 210 232 228 203 224 267 182 223 167 182 195 227 230 226 217 198
234 235 236 237 243 238 236 232 229 230 235 240 241 242 250 263 287 255 240 240 239 246 245 234 224 201 204 183 190 195 240 195 131 207 184 202 248 238 198 214 232 237 230 228 221
237 237 237 236 235 236 233 230 229 227 226 229 232 231 234 228 234 200 247 260 235 230 234 213 191 185 211 202 190 204 228 192 172 175 182 189 289 266 236 247 234 257 248 239 229
239 235 234 235 232 231 227 231 228 226 225 221 218 213 199 210 234 190 215 19 203 211 214 204 191 188 212 204 173 221 220 203 210 217 242 249 249 267 262 258 271 265 260 256 247
240 236 232 230 229 229 224 222 227 220 218 212 205 203 202 219 240 232 214 259 123 195 202 196 205 193 197 205 213 197 234 223 220 230 260 262 261 233 260 254 254 260 263 257 250
239 238 231 228 228 226 222 217 217 224 212 206 197 207 215 230 222 235 223 213 192 186 191 198 196 191 181 173 166 187 247 222 225 224 240 229 252 232 257 258 259 262 262 257 257
240 236 233 226 224 222 220 217 213 207 214 203 199 206 233 242 233 220 225 202 200 200 184 189 182 177 170 129 115 195 221 246 174 215 233 203 257 249 263 253 250 254 251 249 252
240 234 232 227 222 219 215 212 209 206 196 198 201 200 234 235 226 219 226 201 196 200 188 188 191 192 164 194 203 199 236 225 239 228 284 213 264 254 275 253 254 258 259 256 254
236 233 226 226 221 215 212 204 203 198 187 196 206 201 230 221 218 212 211 208 178 173 179 193 188 194 204 196 218 224 227 224 236 132 242 255 256 267 274 277 278 274 265 265 264
233 230 224 222 221 213 203 190 179 187 189 185 197 202 301 207 192 206 197 177 164 184 190 193 203 210 211 218 248 257 239 244 232 245 303 270 274 271 272 274 266 262 263 264 265
231 228 222 218 216 219 206 190 191 183 177 205 199 201 190 187 175 196 181 177 185 196 190 191 223 219 230 220 226 228 232 238 258 272 286 287 282 278 267 261 259 260 263 261 262
227 222 218 217 214 212 195 200 189 178 165 211 206 204 184 178 202 195 178 190 193 195 201 204 194 216 212 209 216 227 235 246 260 282 272 290 285 265 250 250 251 250 249 253 251
225 221 218 213 213 215 217 212 200 188 201 182 198 225 196 188 234 210 186 179 191 203 198 222 203 164 200 220 214 230 228 245 255 272 268 62 293 279 275 261 243 247 243 251 257
222 215 212 211 205 209 214 198 176 180 229 163 173 189 180 182 143 188 185 193 194 178 187 195 195 193 200 206 198 219 180 232 246 250 274 260 269 254 262 261 248 251 249 248 254
217 222 219 215 215 213 205 193 171 196 220 176 157 175 165 195 174 149 177 190 186 200 224 222 166 205 199 193 196 157 149 138 194 234 256 226 225 265 247 255 268 251 248 253 256
229 215 209 209 211 203 198 170 187 211 150 171 172 172 177 172 174 175 178 188 177 184 203 195 204 167 165 171 192 185 168 176 209 215 246 206 218 250 297 286 248 257 274 276 275
224 220 213 220 199 205 181 193 224 156 179 160 168 166 185 159 191 186 183 196 213 205 173 196 206 199 182 194 182 198 186 195 215 219 268 199 230 253 250 231 251 271 283 286 285
213 214 215 212 213 202 186 211 208 171 171 159 148 167 177 182 166 181 198 205 201 201 200 200 226 187 194 185 173 193 218 211 311 134 280 238 257 272 253 247 254 270 287 291 295
208 215 216 216 212 206 213 213 183 171 155 156 155 178 178 181 165 182 187 210 208 206 217 186 193 267 181 199 213 193 169 190 217 230 238 249 256 253 279 281 283 285 300 297 301
206 215 219 213 213 221 218 228 187 182 160 175 181 171 191 177 188 184 191 198 198 190 201 182 222 144 172 201 194 190 187 220 212 226 242 267 259 256 271 275 286 300 288 293 298
193 211 199 201 195 193 222 166 262 182 179 179 186 164 184 183 188 188 200 211 198 181 190 194 224 191 198 173 228 219 210 200 214 214 232 249 263 278 286 289 291 289 294 301 300
199 191 203 196 213 209 148 193 213 178 187 180 180 185 179 179 182 196 199 181 185 175 177 160 190 178 195 234 193 221 218 225 229 247 243 234 264 280 286 287 286 293 299 292 290
202 165 227 199 214 198 164 170 184 193 191 196 167 160 155 181 185 193 181 166 181 184 179 165 200 214 220 140 178 211 216 219 220 229 242 240 259 278 279 276 298 294 291 287 287
183 228 213 161 177 177 198 155 169 153 210 201 198 178 164 168 183 184 177 153 177 188 181 188 226 225 245 254 203 214 225 222 221 230 232 255 248 264 271 287 284 289 289 292 295
183 184 143 203 170 151 167 204 190 159 157 203 179 191 190 186 189 177 171 175 174 181 188 198 231 215 242 237 239 251 244 228 225 235 242 250 256 255 274 279 281 284 287 297 298
194 191 170 172 176 180 187 173 172 167 185 204 197 186 197 197 194 189 167 170 157 162 184 183 182 164 226 211 214 250 243 231 232 235 231 238 247 259 262 272 278 286 299 295 297